weather.gov     
National Weather Service

Other Surface Observations
NWS Homepage
This page is being discontinued on March 12, 2014.
The same data is available at this site. Please update your bookmarks.
Thank you, and we apologize for the inconvenience.
Please send an email to SR-SRH.Webmaster@noaa.gov with any concerns.


Current Version
Previous Version:    01  02  03  04  05  06  07  08  09  10  11  12  13  14  15  16  17  18  19  20  21  22  23  24  25  26  27  28  29  30  
   31  32  33  34  35  36  37  38  39  40  41  42  43  44  45  46  47  48  49  50  51  52  53  54  55  56  57  58  59  60  
[Printable]
946
SXUS52 KCHS 201225
OSOCHS

MARINE OBSERVATIONS
NATIONAL WEATHER SERVICE CHARLESTON SC
700 AM EST SAT DEC 20 2014

...DOWNTOWN CHARLESTON AND HARBOR...

CITY           SKY/WX    TMP DP  RH WIND       PRES   REMARKS
WATERFRONT PRK   N/A     52 N/A N/A N9          N/A
FORT JOHNSON   NOT AVBL

...LAKE MOULTRIE...

CITY           SKY/WX    TMP DP  RH WIND       PRES   REMARKS
PINOPOLIS        N/A     52  46  82 E7        30.09R

...LAKE AND SUPPLEMENTAL COASTAL OBSERVATIONS...

STATION/POSITION TIME  TEMP    WIND        PRES    WAVE   SWELL
                       AIR SEA DIR/SP/G            HT/PER HT/PER/DIR
                 (UTC) (F)     (DEG/KT/KT) (MB)    (FT/S) (FT/S/D)
FORT PULASKI     1200   53 57   20/  5/  8 1021.1R
SAPELO ISLAND    1100   54      10/  6     1020.0S
UPR LAKE MARION  NOT AVBL
WINYAH BAY       1100   52      50/  7     1020.0F
LAKE MURRAY      1200   46      50/  1/  4 1021.3S
ACE BASIN NERRS  1100   49      10/  1     1021.0R


...C-MAN AND BUOY OBSERVATIONS...

STATION/POSITION TIME  TEMP    WIND        PRES    WAVE   SWELL
                       AIR SEA DIR/SP/G            HT/PER HT/PER/DIR
                 (UTC) (F)     (DEG/KT/KT) (MB)    (FT/S) (FT/S/D)
BUOY 41004       1200   64 69   50/ 17/ 21 1019.6R   4/ 5   2/11
BUOY 41008       1200   58 57   30/ 10/ 12 1019.9R   2/11   2/110/11
FOLLY BEACH CMAN 1200   54      30/ 12/ 13 1021.7R
CAPERS NS BUOY   1100   55      40/ 14/ 16   N/A
FRIPP NS BUOY    NOT AVBL
5E ST. MARYS GA  1200      61                N/A     2/ 3


STATION/POSITION TIME  TEMP    WIND        PRES    WAVE   SWELL
                       AIR SEA DIR/SP/G            HT/PER HT/PER/DIR
                 (UTC) (F)     (DEG/KT/KT) (MB)    (FT/S) (FT/S/D)
FRYING PAN BUOY  1200   57 69   60/ 14/ 17 1022.6R   2/ 4   2/120/11
BUOY 41025       1200   46                 1024.2R   3/ 7
CAPE LOOKOUT NC  1200   46      10/ 10/ 11 1024.1R
BUOY 41002       1135   65 72   50/ 12/ 16 1021.1F   3/10   2/100/10
BUOY 41010       1200   72 76  170/  6/  8 1019.5R   2/10   2/ 80/10
ST AUGUSTINE FL  1200   64      20/  8/  8 1019.9R

$$




U.S. Dept. of Commerce
NOAA National Weather Service
1325 East West Highway
Silver Spring, MD 20910
E-mail: w-nws.webmaster@noaa.gov
Page last modified: May 16, 2007
NATIONAL WEATHER SERVICE: for Safety, for Work, for Fun - FOR LIFE